Home > Weather > Rapid City > Past weeks

Flag for U.S.A. Weather for the Past 2 Weeks in Rapid City, South Dakota, U.S.A.

Now
25 °F

Light freezing rain. Ice fog.


Feels Like: 14 °F
Forecast: 26 / 32 °F
Wind: 13 mph from Southeast

Location: Ellsworth Air Force Base

Current Time: Feb 12, 2016 at 3:46:33 PM

Latest Report: Feb 12, 2016 at 2:58 PM


Visibility: 0 mi

Pressure: 30.45 "Hg (26.90 "Hg at 977m altitude)

Humidity: 99%

Dew point: 25 °F

Location of Rapid CityLocation

Historic Weather in Rapid City — Graph

°F

Rapid City Temperature Yesterday

Maximum temperature yesterday: 57 °F (at 10:58 AM)
Minimum temperature yesterday: 27 °F (at 5:58 AM)
Average temperature yesterday: 36 °F

High & Low Weather Summary for the Past Weeks

 TemperatureHumidityPressure
High61 °F (Feb 10, 10:58 AM)100% (Feb 2, 4:53 AM)30.52 "Hg (Feb 2, 4:53 AM)
Low10 °F (Feb 4, 7:58 AM)23% (Feb 10, 10:58 AM)29.48 "Hg (Jan 30, 4:58 AM)
Average34 °F64%30.06 "Hg
* Reported Jan 28 1:58 PM — Feb 12 1:58 PM, Rapid City, Weather by CustomWeather, © 2016

Note: Actual official high and low records may vary slightly from our data, if they occured in-between our weather recording intervals... More about our weather records

Advertising

Rapid City Weather History for the Previous 24 Hours

 ConditionsComfort  
Time TempWeatherWind HumidityBarometerVisibility
1:58 PM
Fri, Feb 12
25 °FLight freezing rain. Ice fog.13 mph99%30.46 "Hg1 mi
1:04 PM27 °FLight freezing rain. Ice fog.12 mph100%30.36 "Hg0 mi
11:58 AM28 °FIce fog.8 mph99%30.50 "Hg1 mi
10:58 AM28 °FIce fog.6 mph100%30.52 "Hg1 mi
9:58 AM27 °FIce fog.6 mph100%30.52 "Hg1 mi
9:54 AM27 °FIce fog.5 mph100%30.40 "Hg1 mi
9:04 AM28 °FLight snow. Ice fog.7 mph93%30.38 "Hg1 mi
8:58 AM28 °FLight snow. Ice fog.5 mph99%30.50 "Hg3 mi
7:58 AM28 °FLight snow. Ice fog.7 mph97%30.48 "Hg2 mi
6:58 AM29 °FLight snow. Low clouds.7 mph93%30.45 "Hg10 mi
5:58 AM29 °FLow clouds.5 mph93%30.43 "Hg10 mi
5:04 AM28 °FLight snow. Low clouds.6 mph100%30.32 "Hg10 mi
4:58 AM30 °FLow clouds.6 mph93%30.40 "Hg10 mi
3:58 AM31 °FLow clouds.8 mph93%30.35 "Hg10 mi
2:58 AM31 °FLow clouds.6 mph91%30.32 "Hg10 mi
1:58 AM31 °FLow clouds.No wind93%30.29 "Hg10 mi
12:58 AM31 °FLow clouds.1 mph91%30.27 "Hg10 mi
11:58 PM
Thu, Feb 11
31 °FLow clouds.1 mph92%30.27 "Hg10 mi
10:58 PM31 °FLow clouds.5 mph92%30.27 "Hg10 mi
10:03 PM32 °FLow clouds.5 mph93%30.23 "Hg10 mi
9:58 PM31 °FLow clouds.5 mph94%30.29 "Hg10 mi
8:58 PM32 °FLow clouds.5 mph95%30.31 "Hg10 mi
7:58 PM33 °FPassing clouds.13 mph90%30.30 "Hg10 mi
6:58 PM35 °FOvercast.15 mph84%30.27 "Hg10 mi
5:58 PM39 °FPassing clouds.14 mph76%30.23 "Hg10 mi
4:58 PM46 °FOvercast.16 mph60%30.17 "Hg10 mi
3:58 PM52 °FMostly cloudy.29 mph42%30.11 "Hg10 mi
Weather by CustomWeather, © 2016

See weather overviewHow to use our weather pages